This is the latest recevied weather packets stored in our database for station/object YF9UAG-16. If no packets are shown the sender has not sent any weather packets the latest 10 day(s).
| Time | Temp. | Humidity | Pressure | Rain* | Wind** | Luminosity | Snow |
|---|---|---|---|---|---|---|---|
| 1777356513 | 37.78° C | 34% | 1005 hPa | - | - | 0 W/m² | - |
| 1777356191 | 37.22° C | 34% | 1005 hPa | - | - | 0 W/m² | - |
| 1777355869 | 36.67° C | 35% | 1005 hPa | - | - | 0 W/m² | - |
| 1777355547 | 35.56° C | 36% | 1005 hPa | - | - | 0 W/m² | - |
| 1777355225 | 35° C | 38% | 1005 hPa | - | - | 0 W/m² | - |
| 1777354981 | 36.67° C | 36% | 1006 hPa | - | - | 0 W/m² | - |
| 1777354581 | 35° C | 36% | 1006 hPa | - | - | 0 W/m² | - |
| 1777354259 | 36.11° C | 35% | 1006 hPa | - | - | 0 W/m² | - |
| 1777353937 | 37.22° C | 34% | 1006 hPa | - | - | 0 W/m² | - |
| 1777353615 | 36.67° C | 35% | 1006 hPa | - | - | 0 W/m² | - |
| 1777353293 | 35° C | 36% | 1006 hPa | - | - | 0 W/m² | - |
| 1777352971 | 36.11° C | 35% | 1006 hPa | - | - | 0 W/m² | - |
| 1777352649 | 35.56° C | 36% | 1006 hPa | - | - | 0 W/m² | - |
| 1777352327 | 37.78° C | 34% | 1006 hPa | - | - | 0 W/m² | - |
| 1777352005 | 37.22° C | 34% | 1006 hPa | - | - | 0 W/m² | - |
| 1777351683 | 37.78° C | 34% | 1006 hPa | - | - | 0 W/m² | - |
| 1777351361 | 37.78° C | 33% | 1006 hPa | - | - | 0 W/m² | - |
| 1777351039 | 36.11° C | 37% | 1006 hPa | - | - | 0 W/m² | - |
| 1777350717 | 37.22° C | 35% | 1006 hPa | - | - | 0 W/m² | - |
| 1777350395 | 37.78° C | 35% | 1006 hPa | - | - | 0 W/m² | - |
| 1777350073 | 37.78° C | 37% | 1006 hPa | - | - | 0 W/m² | - |
| 1777349750 | 37.22° C | 37% | 1007 hPa | - | - | 0 W/m² | - |
| 1777349429 | 36.11° C | 37% | 1007 hPa | - | - | 0 W/m² | - |
| 1777349107 | 35.56° C | 40% | 1007 hPa | - | - | 0 W/m² | - |
| 1777348785 | 35.56° C | 42% | 1007 hPa | - | - | 0 W/m² | - |
* Rain since midnight (hover to see other rain measurements)
** Current wind speed in m/s (hover to see current wind gust speed)